sat.trackr.live / text

‹ back to catalog

STARLINK-30762

NORAD 58197 · 2023-167Y

PAYLOAD ACTIVE UNKNOWN

§ Identity

Operator
Country
US
Launch date
2023-10-30
Launch site
AFETR
Launch vehicle
Mass (kg)
RCS (m²)

Purposes: comms

External: N2YO · Heavens-Above · Gunter

§ Orbital elements

Epoch: 2026-05-25T04:57:40.348800Z

Period
94.27 min
Inclination
43.0015°
Eccentricity
0.0001421
Mean motion
15.27578575 rev/d
Perigee alt
482.1 km
Apogee alt
484.0 km
Semi-major
6,861.2 km
B*
7.0766e-5
RAAN
71.5850°
Arg perigee
265.1603°
Mean anomaly
94.9087°
Rev number
14,268

§ Raw data

STARLINK-307621 58197U 23167Y   26145.20671700  .00001686  00000+0  70766-4 0  99902 58197  43.0015  71.5850 0001421 265.1603  94.9087 15.27578575142682

JSON: /api/v1/satellites/58197 · /tle

For live sub-satellite position, see the globe view (requires WebGL).

§ Visibility from observer

Set your observer location to see the next 7 days of passes ≥ 10°. The values pass through the URL so the page stays shareable.

No JS? Fill the form by hand. The geolocation button needs JavaScript.